Home   Weather   Saint-Denis   Past weeks

Flag for Réunion (French) Past Weather in Saint-Denis, Réunion (French) — Yesterday and Last 2 Weeks

Now
77 °F

Partly cloudy.


Feels Like: 79 °F
Forecast: 75 / 80 °F
Wind: 22 mph from Southeast

Location: Saint-Denis / Gillot

Current Time: Apr 29, 2017 at 2:00:01 am

Latest Report: Apr 29, 2017 at 1:30 am


Visibility: N/A

Pressure: 30.07 "Hg

Humidity: 74%

Dew Point: 68 °F

Location of Saint-DenisLocation

Past Weather in Saint-Denis — Graph

°F

Saint-Denis Temperature Yesterday

Maximum temperature yesterday: 86 °F (at 11:00 am)
Minimum temperature yesterday: 72 °F (at 1:30 am)
Average temperature yesterday: 78 °F

High & Low Weather Summary for the Past Weeks

 TemperatureHumidityPressure
High86 °F (Apr 14, 1:00 pm)94% (Apr 15, 4:30 am)30.09 "Hg (Apr 15, 4:30 am)
Low70 °F (Apr 24, 3:00 am)55% (Apr 23, 3:00 pm)29.77 "Hg (Apr 22, 3:00 pm)
Average78 °F76%29.96 "Hg
* Reported Apr 14 1:00 am — Apr 29 1:00 am, Saint-Denis, Weather by CustomWeather, © 2017

Note: Actual official high and low records may vary slightly from our data, if they occured in-between our weather recording intervals... More about our weather records

Advertising

Saint-Denis Weather History for the Previous 24 Hours

Scroll right to see more
 ConditionsComfort  
Time TempWeatherWind HumidityBarometerVisibility
1:00 am
Sat, Apr 29
77 °FOvercast.20 mph69%30.04 "HgN/A
12:30 am77 °FClear.23 mph69%30.04 "Hg10 mi
12:00 am77 °FPartly cloudy.20 mph69%30.07 "HgN/A
11:30 pm
Fri, Apr 28
77 °FPartly cloudy.21 mph69%30.07 "HgN/A
11:00 pm75 °FMostly cloudy.22 mph78%30.07 "HgN/A
10:30 pm77 °FPassing clouds.21 mph69%30.07 "HgN/A
10:00 pm77 °FClear.20 mph69%30.07 "Hg10 mi
9:30 pm77 °FClear.21 mph69%30.07 "Hg10 mi
9:00 pm77 °FPassing clouds.22 mph69%30.07 "HgN/A
8:30 pm77 °FClear.21 mph69%30.04 "Hg10 mi
8:00 pm77 °FPassing clouds.23 mph69%30.04 "HgN/A
7:30 pm79 °FPassing clouds.17 mph65%30.04 "HgN/A
7:00 pm79 °FPassing clouds.16 mph65%30.01 "HgN/A
6:30 pm79 °FPassing clouds.13 mph65%30.01 "HgN/A
6:00 pm79 °FPartly cloudy.13 mph65%30.01 "HgN/A
5:00 pm79 °FScattered clouds.16 mph65%30.01 "HgN/A
4:00 pm81 °FScattered clouds.15 mph62%29.98 "HgN/A
3:30 pm81 °FScattered clouds.24 mph66%29.98 "HgN/A
3:00 pm82 °FScattered clouds.17 mph62%30.01 "HgN/A
2:30 pm82 °FScattered clouds.20 mph66%30.01 "HgN/A
2:00 pm82 °FScattered clouds.22 mph62%30.01 "HgN/A
1:00 pm82 °FScattered clouds.18 mph66%30.04 "HgN/A
12:30 pm84 °FScattered clouds.17 mph62%30.04 "HgN/A
11:30 am82 °FScattered clouds.16 mph66%30.07 "HgN/A
11:00 am86 °FScattered clouds.14 mph59%30.07 "HgN/A
10:30 am84 °FScattered clouds.9 mph58%30.07 "HgN/A
10:00 am82 °FScattered clouds.12 mph62%30.09 "HgN/A
9:00 am82 °FScattered clouds.8 mph62%30.09 "HgN/A
8:30 am81 °FScattered clouds.9 mph66%30.07 "HgN/A
8:00 am81 °FScattered clouds.5 mph66%30.07 "HgN/A
7:30 am77 °FScattered clouds.7 mph69%30.07 "HgN/A
7:00 am73 °FScattered clouds.6 mph78%30.07 "HgN/A
6:30 am73 °FPassing clouds.6 mph74%30.04 "HgN/A
6:00 am73 °FPassing clouds.5 mph74%30.04 "HgN/A
5:30 am73 °FClear.8 mph78%30.04 "Hg10 mi
5:00 am73 °FClear.6 mph78%30.04 "Hg10 mi
4:30 am73 °FPassing clouds.3 mph78%30.04 "HgN/A
4:00 am73 °FClear.7 mph78%30.04 "Hg10 mi
3:30 am72 °FClear.3 mph78%30.04 "Hg10 mi
3:00 am72 °FClear.2 mph78%30.04 "Hg10 mi
2:30 am72 °FClear.2 mph78%30.04 "Hg10 mi
2:00 am72 °FPassing clouds.5 mph83%30.04 "HgN/A
Weather by CustomWeather, © 2017

See weather overviewHow to use our weather pages